Regional Weather Roundup
Issued by NWS

Home | Current Version | Previous Version | Text Only | Print | Product List | Glossary On
Versions: 1 2 3 4 5 6 7 8 9 10 11 12 13 14 15 16 17 18 19 20 21 22 23 24 25 26 27 28 29 30 31 32 33 34 35 36 37 38 39 40 41 42 43 44 45 46 47 48 49 50
000
ASUS46 KSTO 010204
RWRCA

NORTHERN AND CENTRAL CA REGIONAL WEATHER ROUNDUP
NATIONAL WEATHER SERVICE SACRAMENTO CA
700 PM PDT FRI SEP 30 2016

NOTE: FAIR INDICATES FEW OR NO CLOUDS BELOW 12,000 FEET WITH NO
SIGNIFICANT WEATHER AND/OR OBSTRUCTIONS TO VISIBILITY.

CAZ001-003-010300-
NORTHWEST AREA

CITY           SKY/WX    TMP DP  RH WIND       PRES   REMARKS
CRESCENT CITY  MOCLDY    56  47  71 S9        30.09F
UKIAH          MOCLDY    61  44  53 NW10G18   30.06S
$$

CAZ006-505>513-010300-
BAY AREA

CITY           SKY/WX    TMP DP  RH WIND       PRES   REMARKS
SANTA ROSA     CLOUDY    65  44  46 W9        30.02S
SAN RAFAEL     N/A       64  MM  MM MISG
NAPA           PTCLDY    62  46  55 W21       30.02S
CONCORD        CLEAR     63  45  51 SW10      30.05S
OAKLAND CITY   N/A       62  MM  MM MISG
OAKLAND        PTCLDY    61  50  67 W20       30.08S
SAN FRAN CITY  N/A       57  MM  71 MISG
SAN FRAN ARPT  PTCLDY    59  49  69 W28       30.09S
LIVERMORE      CLEAR     59  47  64 W14       30.06S
HAYWARD        CLEAR     60  47  61 W15       30.08S
REDWOOD CITY   N/A       MM  MM  MM MISG
MOFFETT ARPT   CLEAR     62  46  55 W8        30.10S
SAN JOSE ARPT  PTCLDY    63  46  54 W13       30.09S
$$
CAZ034-037-514>518-010300-
CENTRAL COAST

CITY           SKY/WX    TMP DP  RH WIND       PRES   REMARKS
WATSONVILLE    CLEAR     62  49  62 SE8       30.07R
SALINAS        CLEAR     60  48  64 SW16      30.07S
MONTEREY       CLEAR     58  48  69 SW5       30.09S
SAN LUIS OBISP CLEAR     61  51  70 NW13      30.01S
SANTA MARIA    CLEAR     57  52  83 NW13      30.03S
$$
CAZ015-016-010300-
NORTHERN SACRAMENTO VALLEY

CITY           SKY/WX    TMP DP  RH WIND       PRES   REMARKS
REDDING        CLOUDY    74  28  18 SW7       29.91S
RED BLUFF      CLOUDY    75  45  34 SE3       29.92S
OROVILLE       CLOUDY    72  41  32 S13       29.96R
$$
CAZ016>018-010300-
SOUTHERN SACRAMENTO VALLEY

CITY           SKY/WX    TMP DP  RH WIND       PRES   REMARKS
AUBURN         CLEAR     66  32  28 S7        30.02S
BEALE AFB      PTCLDY    67  42  40 S13       29.95R
LINCOLN        FAIR      66  37  34 S10G20    29.97R
MARYSVILLE     PTCLDY    68  44  42 SE10G23   29.96R
SAC INTL ARPT  PTCLDY    66  44  45 S12       29.96S
MATHER AIRPORT PTCLDY    64  43  45 S12       30.00R
DOWNTOWN SAC   N/A       66  MM  MM MISG
SAC EXEC ARPT  CLEAR     64  44  48 SW12G20   29.98S
VACAVILLE      PTCLDY    68  41  37 SW10G17   29.99S
TRAVIS AFB     CLOUDY    62  45  55 SW17      29.99S
$$
CAZ019>021-010300-
SAN JOAQUIN VALLEY

CITY           SKY/WX    TMP DP  RH WIND       PRES   REMARKS
STOCKTON       CLEAR     64  44  48 W16       30.01R
MODESTO        CLEAR     69  36  29 NW16      29.98S
MERCED         CLEAR     73  40  30 NW16      29.96S
LEMOORE        CLEAR     81  41  24 NW13      29.93S
FRESNO         CLEAR     82  40  22 NW14      29.93S
HANFORD        CLEAR     83  43  24 NW12      29.92S
PORTERVILLE    CLEAR     83  51  33 NW6       29.92S
BAKERSFIELD    CLEAR     85  45  24 NW5       29.91S
$$
CAZ011-012-071-010300-
NORTHERN MOUNTAINS

CITY           SKY/WX    TMP DP  RH WIND       PRES   REMARKS
YREKA          MOCLDY    61  17  18 NW12      29.99R
MOUNT SHASTA   MOCLDY    55  33  43 CALM      29.99S
ALTURAS        MOCLDY    61  34  36 W13       29.98S
$$
CAZ011-012-071-010300-
SIERRA NEVADA MTNS

CITY           SKY/WX    TMP DP  RH WIND       PRES   REMARKS
BLUE CANYON    CLEAR     55  25  31 S8        30.14F
TRUCKEE        CLEAR     55  27  33 SW9       30.13S
TAHOE VLY ARPT CLEAR     59  29  31 S8G18     30.12F
MAMMOTH LAKES  FAIR      60  28  29 W5G17     30.22S
$$




USA.gov is the U.S. government's official web portal to all federal, state and local government web resources and services.